User: anonymous
Location: NJAA Observatory
(40.6819°N, 74.8979°W)
Time: 16:58:51
(UTC-04:00)
Language:

Meteor 2-9 Rocket - Orbit

View from above orbital plane
View from above orbital plane
View from above satellite
View from above satellite

Ground track
Ground track

The orbit data is extracted from the following two-line orbital elements,

1 13719U 82116B   14238.17230567 -.00000077  00000-0 -45912-4 0  4972
2 13719 081.2532 285.4004 0072272 040.2257 012.7518 14.14476370635316
Epoch (UTC): 26 August 2014 04:08:07
Eccentricity: 0.0072272
inclination: 81.2532°
perigee height: 792 km
apogee height: 896 km
right ascension of ascending node: 285.4004°
argument of perigee: 40.2257°
revolutions per day: 14.14476370
mean anomaly at epoch: 12.7518°
orbit number at epoch: 63531

The dashed part of the orbit path shows where the satellite is in the earth's shadow,  

DLR